Regional Weather Roundup
Issued by NWS

Home | Current Version | Previous Version | Graphics & Text | Print | Product List | Glossary On
Versions: 1 2 3 4 5 6 7 8 9 10 11 12 13 14 15 16 17 18 19 20 21 22 23 24 25 26 27 28 29 30 31 32 33 34 35 36 37 38 39 40 41 42 43 44 45 46 47 48 49 50
811
ASUS44 KJAN 230610
RWRMS

MISSISSIPPI HOURLY WEATHER ROUNDUP
NATIONAL WEATHER SERVICE JACKSON MS
100 AM CDT TUE SEP 23 2014

NOTE: "FAIR: INDICATES FEW OR NO CLOUDS BELOW 12,000 FEET WITH NO
SIGNIFICANT WEATHER AND/OR OBSTRUCTIONS TO VISIBILITY.

MSZ001>002-007>008-010>013-018>021-025>028-034>036-230700-
NORTHWEST MISSISSIPPI

CITY           SKY/WX    TMP DP  RH WIND       PRES   REMARKS
CLARKSDALE       N/A     57  54  88 N6        30.20S
CLEVELAND      FAIR      59  56  88 NE7       30.18S
GREENWOOD      CLEAR     57  53  86 CALM      30.17S
6HR MIN TEMP:  56; 6HR MAX TEMP:  68;

GREENVILLE     CLEAR     61  53  75 NE6       30.17S
6HR MIN TEMP:  60; 6HR MAX TEMP:  75;

GRENADA        FAIR      61  52  72 N7        30.18S
OLIVE BRANCH   CLEAR     55  54  94 NE5       30.22S
OXFORD         FAIR      54  50  87 CALM      30.22R
TUNICA         CLEAR     54  50  87 N5        30.21S
$$

MSZ003>006-009-014>017-022>024-029>033-037>039-230700-
NORTHEAST MISSISSIPPI

CITY           SKY/WX    TMP DP  RH WIND       PRES   REMARKS
COLUMBUS AFB   CLEAR     57  53  86 N2        30.16R
6HR MIN TEMP:  57; 6HR MAX TEMP:  70;

CORINTH          N/A     57  48  72 N5        30.20R
GOLDN TRIANGLE CLEAR     57  50  77 N5        30.16R
STARKVILLE     FAIR      57  52  82 CALM      30.16S
TUPELO         CLEAR     55  50  83 NE8       30.18R
6HR MIN TEMP:  55; 6HR MAX TEMP:  68;

$$

MSZ040-058-230700-
CENTRAL MISSISSIPPI

CITY           SKY/WX    TMP DP  RH WIND       PRES   REMARKS
JACKSON INTL   CLEAR     67  53  61 NE10      30.13S
6HR MIN TEMP:  67; 6HR MAX TEMP:  75;

JACKSON HAWKNS CLEAR     66  54  65 VRB5      30.14S
6HR MIN TEMP:  66; 6HR MAX TEMP:  77;

MERIDIAN KEY   CLEAR     59  53  80 N7        30.12S
6HR MIN TEMP:  58; 6HR MAX TEMP:  73;

MERIDIAN NAS   CLEAR     61  52  72 N5        30.13S
6HR MIN TEMP:  61; 6HR MAX TEMP:  75;

RAYMOND        FAIR      63  57  82 CALM      30.13S
VICKSBURG      CLEAR     64  55  72 NE9       30.14R
6HR MIN TEMP:  64; 6HR MAX TEMP:  73;

$$

MSZ059>079-230700-
SOUTH MISSISSIPPI

CITY           SKY/WX    TMP DP  RH WIND       PRES   REMARKS
BROOKHAVEN     FAIR      63  55  77 N5        30.13S
COLUMBIA       FAIR      63  54  72 NE5       30.09S
HATTIESBURG    CLEAR     66  54  65 N3        30.11R
6HR MIN TEMP:  66; 6HR MAX TEMP:  78;

MCCOMB         CLEAR     66  53  63 N5        30.10S
6HR MIN TEMP:  66; 6HR MAX TEMP:  78;

NATCHEZ        CLEAR     64  54  68 NE7       30.13R
6HR MIN TEMP:  63; 6HR MAX TEMP:  73;

PINE BELT      CLEAR    N/A N/A N/A N8        30.11R
$$

MSZ080>082-230700-
COASTAL MISSISSIPPI

CITY           SKY/WX    TMP DP  RH WIND       PRES   REMARKS
BILOXI         CLEAR     68  56  63 NE9       30.05S
6HR MIN TEMP:  68; 6HR MAX TEMP:  78;

PASCAGOULA     CLEAR     60  56  86 N3        30.05S
6HR MIN TEMP:  58; 6HR MAX TEMP:  75;

GULFPORT       CLEAR     68  53  58 N9        30.05S
6HR MIN TEMP:  68; 6HR MAX TEMP:  80;

$$



USA.gov is the U.S. government's official web portal to all federal, state and local government web resources and services.